Погода в Панкрушихе

Россия / Алтайский край     53°49′46″N   80°20′32″E
темп.,
°C
ветер,
м/с
пор.,
м/с
влажн.,
%
обл.,
%
осадки,
мм/ч
давл.,
гПа
погр.,
м
7 мая, пт
пт701:00+17сз61256100 0.0 1004393
04:00+15сз51155100 0.0 1006386
07:00+12сз4958100 0.0 1010354
10:00+14ссз5846100 0.0 1012724
13:00+16сз7833100 0.0 10141701
16:00+18зсз6931100 0.0 10152068
19:00+17сз6834100 0.0 10161763
22:00+11зсз37449 0.0 1019164
8 мая, сб
сб801:00+9зсз355237 0.0 102072
04:00+8сз33560 0.0 102146
07:00+8сз22580 0.0 102230
10:00+14з33371 0.0 1022509
13:00+18з44320 0.0 10211504
16:00+20зсз46310 0.0 10191941
19:00+20зсз46315 0.0 10182111
22:00+14ссз22470 0.0 101913
9 мая, вс
вс901:00+13з22470 0.0 101814
04:00+11з225111 0.0 101812
07:00+12сз225431 0.0 101817
10:00+17с334680 0.0 1018516
13:00+20ссв43419 0.0 10171476
16:00+21ссв443537 0.0 10171904
19:00+19ссв5438100 0.0 10161454
22:00+14св51145100 0.0 1018430
10 мая, пн
пн1001:00+10всв6134762 0.0 1017478
04:00+8в614517 0.0 1016510
07:00+7всв61456100 0.0 1017613
10:00+11всв81144100 0.0 1016905
13:00+14всв7934100 0.0 10151463
16:00+14св8934100 0.0 10141730
19:00+13св7941100 0.0 10131234
22:00+11ссв4114977 0.0 1014303
11 мая, вт
вт1101:00+10св61350100 0.0 1014624
04:00+8ссв5126095 0.0 1014464
07:00+7ссв51072100 0.0 1015422
10:00+11св6853100 0.0 1015846
13:00+14св6739100 0.0 10151887
16:00+16ссв5734100 0.0 10142459
19:00+16ссв4737100 0.0 10152400
22:00+11с3450100 0.0 101654